Simultaneous Nadir Overpasses (SNOs) Predictions

Prediction of SNOs between METOP-A and NOAA-19 Satellite Orbit:

Table of predicted SNOs for the next 14.0 days since TLE Epoch: 5/25/2019
Index Date (METOP-A) Time (METOP-A) Lat,Lon (METOP-A) SZA (METOP-A ) Date (NOAA-19) Time (NOAA-19) Lat,Lon (NOAA-19) SZA (NOAA-19 ) Distance(km) Time Diff (sec)
1 05/25/2019 04:40:33 79.67, 121.80 58.99 05/25/2019 04:39:45 79.64, 121.79 58.95 3.25 48
2 05/25/2019 05:31:15 -79.64, -71.06 121.05 05/25/2019 05:30:45 -79.64, -71.00 121.05 1.27 30
3 05/25/2019 06:21:55 79.65, 96.36 58.96 05/25/2019 06:21:46 79.64, 96.24 58.94 2.72 9
4 05/25/2019 07:12:37 -79.63, -96.51 121.08 05/25/2019 07:12:46 -79.64, -96.54 121.07 1.71 9
5 05/25/2019 08:03:17 79.64, 70.92 58.93 05/25/2019 08:03:46 79.62, 70.99 58.92 3.05 29
6 05/25/2019 08:53:59 -79.62,-121.95 121.11 05/25/2019 08:54:46 -79.62,-121.79 121.09 3.16 47
7 05/25/2019 09:44:39 79.63, 45.48 58.90 05/25/2019 09:45:47 79.62, 45.45 58.91 1.03 68
8 06/05/2019 03:22:02 -79.68, -38.62 122.63 06/05/2019 03:20:55 -79.70, -38.74 122.62 3.20 67
9 06/05/2019 04:12:42 79.69, 128.78 57.38 06/05/2019 04:11:52 79.67, 128.81 57.36 1.69 50
10 06/05/2019 05:03:24 -79.67, -64.06 122.65 06/05/2019 05:02:55 -79.67, -63.99 122.64 1.74 29
11 06/05/2019 05:54:04 79.67, 103.34 57.36 06/05/2019 05:53:53 79.68, 103.26 57.36 1.62 11
12 06/05/2019 06:44:46 -79.65, -89.50 122.68 06/05/2019 06:44:56 -79.68, -89.53 122.65 2.78 10
13 06/05/2019 07:35:26 79.66, 77.90 57.34 06/05/2019 07:35:53 79.65, 78.00 57.34 2.36 27
14 06/05/2019 08:26:07 -79.67,-114.67 122.66 06/05/2019 08:26:56 -79.65,-114.78 122.67 3.12 49
15 06/05/2019 09:16:48 79.65, 52.45 57.31 06/05/2019 09:17:54 79.66, 52.46 57.33 0.89 66




NCC Satellite Simultaneous Nadir Overpasses (SNOs) Prediction Service
